Los Alamitos, CA

9:22 PM PST on December 03, 2016 (GMT -0800)
Los Alamitos Army Air Field

Weather History for KSLI - May, 2014

Change the Weather History Date:

Monday, May 12, 2014

  Actual Average Record
Temperature  
Mean Temperature 72 °F -  
Max Temperature 93 °F 71 °F 93 °F (2002)
Min Temperature 52 °F 58 °F 52 °F (2014)
Cooling Degree Days 6    
Growing Degree Days 22 (Base 50)    
Moisture  
Dew Point 34 °F    
Average Humidity 31    
Maximum Humidity 68    
Minimum Humidity 7    
Precipitation  
Precipitation 0.00 in - - ()
Sea Level Pressure  
Sea Level Pressure 29.97 in    
Wind  
Wind Speed 7 mph (NW)    
Max Wind Speed 23 mph    
Max Gust Speed 30 mph    
Visibility 10 miles    
Events      
Averages and records for this station are not official NWS values.
T = Trace of Precipitation, MM = Missing Value Source: NWS Daily Summary

Daily Weather History Graph

Daily Weather History Graph

Search for Another Location

Airport or City:

Trip Planner

Search our weather history database for the weather conditions in past years. The results will help you decide how hot, cold, wet, or windy it might be!

Date:

Astronomy

May. 12, 2014 Rise Set
Actual Time 5:53 AM PDT 7:44 PM PDT
Civil Twilight 5:26 AM PDT 8:11 PM PDT
Nautical Twilight 4:53 AM PDT 8:44 PM PDT
Astronomical Twilight 4:17 AM PDT 9:20 PM PDT
Moon 5:52 PM PDT (5/12) 4:28 AM PDT (5/12)
Length of Visible Light 14h 45m
Length of Day
13h 50m
Waxing Gibbous, 95% of the Moon is Illuminated
May 12
Waxing Gibbous
May 14
Full
May 21
Last Quarter
May 28
New
Jun 5
First Quarter

Hourly Weather History & Observations

Time (PDT) Temp. Dew Point Humidity Pressure Visibility Wind Dir Wind Speed Gust Speed Precip Events Conditions
12:58 AM 58.1 °F 44.4 °F 60% 29.97 in 10.0 mi East 3.5 mph - N/A   Clear
1:58 AM 54.7 °F 44.2 °F 68% 29.97 in 10.0 mi Calm Calm - N/A   Clear
2:58 AM 57.4 °F 45.5 °F 65% 29.96 in 10.0 mi North 4.6 mph - N/A   Clear
3:58 AM 56.5 °F 42.6 °F 60% 29.96 in 10.0 mi NNE 2.3 mph - N/A   Clear
4:58 AM 52.9 °F 41.5 °F 65% 29.96 in 10.0 mi NNW 4.6 mph - N/A   Clear
5:58 AM 55.8 °F 43.2 °F 63% 29.97 in 10.0 mi North 2.3 mph - N/A   Clear
6:58 AM 58.1 °F 43.7 °F 59% 29.99 in 10.0 mi NNW 3.5 mph - N/A   Clear
7:58 AM 68.5 °F 41.4 °F 37% 30.01 in 10.0 mi NW 2.3 mph - N/A   Clear
8:58 AM 81.1 °F 29.3 °F 15% 30.02 in 10.0 mi ENE 16.1 mph 19.6 mph N/A   Clear
9:58 AM 85.1 °F 23.7 °F 11% 30.01 in 10.0 mi ENE 13.8 mph 24.2 mph N/A   Clear
10:58 AM 87.3 °F 22.5 °F 9% 30.01 in 10.0 mi East 16.1 mph 19.6 mph N/A   Clear
11:58 AM 89.6 °F 20.1 °F 8% 30.01 in 10.0 mi ENE 13.8 mph 24.2 mph N/A   Clear
12:58 PM 91.0 °F 18.0 °F 7% 30.00 in 10.0 mi NE 9.2 mph - N/A   Clear
1:58 PM 91.4 °F 27.7 °F 10% 29.97 in 10.0 mi SW 13.8 mph - N/A   Clear
2:58 PM 90.0 °F 33.8 °F 14% 29.96 in 10.0 mi SW 15.0 mph - N/A   Clear
3:58 PM 90.1 °F 37.8 °F 16% 29.94 in 10.0 mi SSW 12.7 mph - N/A   Clear
4:01 PM 89.6 °F 33.8 °F 14% 29.93 in 10.0 mi West 12.7 mph - N/A   Clear
4:58 PM 88.7 °F 27.0 °F 11% 29.94 in 10.0 mi West 18.4 mph 25.3 mph N/A   Clear
5:58 PM 85.5 °F 23.5 °F 10% 29.93 in 10.0 mi West 23.0 mph 29.9 mph N/A   Clear
6:58 PM 82.6 °F 26.4 °F 13% 29.94 in 10.0 mi West 15.0 mph 21.9 mph N/A   Clear
7:58 PM 77.9 °F 28.8 °F 16% 29.95 in 10.0 mi West 10.4 mph - N/A   Clear
8:58 PM 74.1 °F 32.5 °F 22% 29.97 in 10.0 mi WNW 8.1 mph - N/A   Clear
9:58 PM 67.1 °F 39.7 °F 37% 29.99 in 10.0 mi South 2.3 mph - N/A   Clear
10:58 PM 64.6 °F 42.1 °F 44% 29.99 in 10.0 mi Calm Calm - N/A   Clear
11:58 PM 63.3 °F 42.6 °F 47% 30.00 in 10.0 mi NNW 2.3 mph - N/A   Clear